SCOUT A DEB, 31407

Orbit data source: Space-Track

SCOUT A DEB, 31407 is space debris in LEO originally from a launch on Thu, 19 May 1966 UTC launched from the Air Force Western Test Range (AFWTR). Debris objects in space refer to the collection of defunct objects orbiting the Earth. Examples of debris include non-operational satellites, rocket bodies, and fragments generated from explosions, collisions, or faulty payload assembly.

Loading next visibility...
Identifier
31407, 1966-041H
Orbit
LEO
Country
Flag of USUS
Related business
Manufacturer
Unknown
Mission
Spacecraft
Bus & Motor
Unknown
Mass
Unknown
Launch date (UTC)
1966-05-19 (60 years ago)
Launch vehicle
Unknown
Launch site
Air Force Western Test Range (AFWTR)
Object type
Payload
Rocket body
Debris
Shape & HBR
Unknown shape, 0.1 m
Radar Cross Section
Small (<0.1 m²)

Expand to show TLE details & history
Last TLE update: 2 days ago

TLE from 2 days ago
0 SCOUT A DEB
1 31407U 66041H   26206.39009710  .00002298  00000-0  82118-3 0  9991
2 31407  90.2008  75.8358 0056467 119.1528 241.5337 14.33009186505636
Epoch: 2026-07-25T09:21Z
TLE epoch observation values (Epoch: 2026-07-25T09:21:44.389Z)
Latitude
-0.00003°
Longitude
-7.70222°
Altitude
804.214 km
Speed
7.441 km/s
True Right ascension
05h 03m 20s
True Declination
0° 00' 00"
Sunlit
Object was in daylight at epoch
Visualization orbit readout
Latitude
Unknown
Longitude
Unknown
Altitude
Unknown
Speed
Unknown
Apparent Right ascension
Unknown
Apparent Declination
Unknown
Sunlit
N/A
Visualization observer readout
Local Sidereal Time
23:13:20
Azimuth
Unknown
Elevation
Unknown
Doppler factor
Unknown
Orbital elements
Apogee altitude
819.032 km
Perigee altitude
738.208 km
Semi-major axis
7,156.757 km
Eccentricity
0.00565
Inclination
90.2008°
RAAN
75.8358°
Arg. of periapsis
119.1528°
True anomaly
240.96678°
Mean anomaly
241.5337°
Eccentric anomaly
241.25005°
Mean motion
3.58483 °/min
Orbital period
100.42 mins
BSTAR
0.00082118
Loading maneuver chart data...
Computing Atmospheric mass density...
Loading historical data...
Loading historical data...
Loading historical data...
Loading historical data...
Loading historical data...
Loading historical data...
Loading historical data...

Documentation

Showing up to 5 results
|